STARLINK-4462, 53781

Orbit data source: Space-Track

STARLINK-4462, 53781 is a payload satellite owned by SpaceX/Seattle (US) in LEO that was launched on Sun, 11 Sep 2022 UTC via an FALCON 9 launch vehicle from the Air Force Eastern Test Range (AFETR). Payload-class satellites include a variety of spacecraft equipped with specific instruments for various scientific and technological missions. These include communications satellites like Starlink; space stations such as the ISS; scientific satellites like the Hubble; Earth observation satellites from companies like Planet Labs, Umbra, and HawkEye 360; GPS; miniature CubeSats for education and research; and military/defense satellites.

Loading next visibility...
Identifier
53781, 2022-111J
Orbit
LEO
Country
Flag of USUS
Related business
Manufacturer
SpaceX/Seattle
Mission
Operational Commercial Communications
Bus & Motor
STARLINK, Unknown motor
Mass
305 kg wet, ~290 kg dry
Launch date (UTC)
2022-09-11 (4 years ago)
Launch vehicle
FALCON 9
Launch site
Air Force Eastern Test Range (AFETR)
Object type
Payload
Rocket body
Debris
Shape & HBR
Box + 1 Pan, 10.1 m
Radar Cross Section
13.562 m², Large (>1 m²)

Expand to show TLE details & history
Last TLE update: 17 hours ago

TLE from 17 hours ago
0 STARLINK-4462
1 53781U 22111J   26197.64224845  .00000023  00000-0  19547-4 0  9996
2 53781  53.1606  54.9583 0001288  90.9670 269.1469 15.08830332213164
Epoch: 2026-07-16T15:24Z
TLE epoch observation values (Epoch: 2026-07-16T15:24:50.266Z)
Latitude
-0°
Longitude
-110.73192°
Altitude
540.678 km
Speed
7.593 km/s
True Right ascension
03h 39m 49s
True Declination
0° 00' 00"
Sunlit
Object was in daylight at epoch
Visualization orbit readout
Latitude
Unknown
Longitude
Unknown
Altitude
Unknown
Speed
Unknown
Apparent Right ascension
Unknown
Apparent Declination
Unknown
Sunlit
N/A
Visualization observer readout
Local Sidereal Time
21:07:37
Azimuth
Unknown
Elevation
Unknown
Doppler factor
Unknown
Orbital elements
Apogee altitude
540.918 km
Perigee altitude
539.136 km
Semi-major axis
6,918.164 km
Eccentricity
0.00013
Inclination
53.1606°
RAAN
54.9583°
Arg. of periapsis
90.967°
True anomaly
269.13214°
Mean anomaly
269.1469°
Eccentric anomaly
269.13952°
Mean motion
3.77187 °/min
Orbital period
95.44 mins
BSTAR
0.000019547
Loading maneuver chart data...
Computing Atmospheric mass density...
Loading historical data...
Loading historical data...
Loading historical data...
Loading historical data...
Loading historical data...
Loading historical data...
Loading historical data...

Documentation

Showing up to 5 results
|